Regional Weather Roundup
Issued by NWS

Home | Current Version | Previous Version | Text Only | Print | Product List | Glossary On
Versions: 1 2 3 4 5 6 7 8 9 10 11 12 13 14 15 16 17 18 19 20 21 22 23 24 25 26 27 28 29 30 31 32 33 34 35 36 37 38 39 40 41 42 43 44 45 46 47 48 49 50
000
ASUS46 KSEW 272310
RWRWA

WASHINGTON REGIONAL WEATHER ROUNDUP
NATIONAL WEATHER SERVICE SEATTLE WA
300 PM PST FRI FEB 27 2015

NOTE:"FAIR" INDICATES FEW OR NO CLOUDS BELOW 12,000 FEET WITH NO
SIGNIFICANT WEATHER AND/OR OBSTRUCTIONS TO VISIBILITY.

WAZ505-507>509-280000-
SEATTLE, TACOMA, EVERETT, AND VICINITY

CITY           SKY/WX    TMP DP  RH WIND       PRES   REMARKS
EVERETT        CLOUDY    48  43  82 N7        29.78R
BOEING FIELD   CLOUDY    54  44  69 VRB7      29.77R
RENTON         CLOUDY    51  30  44 NW12      29.76R
SEATAC AIRPORT CLOUDY    50  44  80 N14       29.76S
JBLM-MCCHORD   CLOUDY    48  46  93 N12       29.74S
PUYALLUP       FAIR      48  48 100 VRB6      29.74S
BREMERTON      CLOUDY    46  45  93 N7        29.79S
JBLM-FT LEWIS  DRIZZLE   48  47  99 N9        29.74S
TACOMA NARROWS LGT RAIN  47  44  90 N9        29.76S FOG
$$

WAZ001-503-506-510-514-515-280000-
NORTH INTERIOR

CITY           SKY/WX    TMP DP  RH WIND       PRES   REMARKS
BELLINGHAM     CLOUDY    53  30  41 NE18G29   29.82R
FRIDAY HARBOR  LGT RAIN  48  38  68 NE13G22   29.85R
EASTSOUND      PTSUNNY   48  45  87 CALM      29.83S
PORT ANGELES   LGT RAIN  45  43  93 SE3       29.84R FOG
NAS WHIDBEY    LGT RAIN  50  43  77 N12       29.83R
ARLINGTON      CLOUDY    50  43  76 N8        29.81S
BURLINGTON     MOSUNNY   48  46  93 N3        29.83S
$$

WAZ020-022-039-040-504-511-512-280000-
SOUTHWEST INTERIOR

CITY           SKY/WX    TMP DP  RH WIND       PRES   REMARKS
SHELTON        CLOUDY    48  42  80 NE12      29.74R
OLYMPIA        PTSUNNY   49  44  83 NE14      29.75R
CHEHALIS       LGT RAIN  50  48  93 NE5       29.73R
KELSO          PTSUNNY   54  43  66 SE7       29.74S
VANCOUVER      CLOUDY    53  44  71 E9        29.71R
SCAPPOOSE, OR  PTSUNNY   53  44  71 VRB5      29.70S
PORTLAND, OR   PTSUNNY   52  43  71 E15       29.71S
$$

WAZ021-516-517-280000-
WASHINGTON COAST

CITY           SKY/WX    TMP DP  RH WIND       PRES   REMARKS
FORKS          CLOUDY    48  41  76 NE12      29.77R
HOQUIAM        PTSUNNY   53  44  71 NE13      29.72S
ASTORIA, OR    LGT RAIN  50  46  86 N5        29.70R
$$

WAZ019-023-024-040-518-519-280000-
CASCADE MOUNTAINS AND COLUMBIA GORGE

CITY           SKY/WX    TMP DP  RH WIND       PRES   REMARKS
TROUTDALE, OR  CLOUDY    50  43  77 E13       29.71S
THE DALLES, OR LGT RAIN  46  41  82 CALM      29.76R
$$

WAZ026-027-041>044-520-521-280000-
EAST SLOPES

CITY           SKY/WX    TMP DP  RH WIND       PRES   REMARKS
OMAK           CLOUDY    44  32  62 N15G28    29.87R
WENATCHEE      CLOUDY    44  37  76 W9        29.82S
ELLENSBURG     CLOUDY    47  35  63 W6        29.77R
YAKIMA         CLOUDY    52  34  50 N12       29.75F
$$

WAZ028-034-035-280000-
COLUMBIA BASIN

CITY           SKY/WX    TMP DP  RH WIND       PRES   REMARKS
EPHRATA        CLOUDY    53  29  39 NE17      29.77S
MOSES LAKE     CLOUDY    52  29  41 NE21G29   29.77R
PASCO          CLOUDY    58  31  35 E12       29.71S
HERMISTON, OR  LGT RAIN  47  42  83 SW10      29.71S
$$

WAZ036>038-280000-
NORTHEAST WASHINGTON

CITY           SKY/WX    TMP DP  RH WIND       PRES   REMARKS
SPOKANE GEIGER PTSUNNY   47  23  38 NE20      29.76S
SPOKANE FELTS  MOSUNNY   50  22  33 E8G16     29.78S
FAIRCHILD AFB  CLOUDY    46  24  41 NE15      29.76S
COEURDALENE,ID PTSUNNY   48  23  37 NE17      29.77R
DEER PARK      MOSUNNY   48  22  35 E10       29.80S
$$

WAZ029>033-280000-
SOUTHEAST WASHINGTON

CITY           SKY/WX    TMP DP  RH WIND       PRES   REMARKS
PULLMAN        MOSUNNY   49  27  42 SE6       29.72S
LEWISTON, ID   MOSUNNY   53  33  46 NE9       29.70S
WALLA WALLA    PTSUNNY   54  37  52 SW6       29.68S
PENDLETON, OR  CLOUDY    48  39  71 NW10      29.68S
$$



USA.gov is the U.S. government's official web portal to all federal, state and local government web resources and services.